EWG850 LOWS-LEIB

Flight info

Callsign EWG850
Flight time N/A
Altitude 35000
Route VERDA DCT MALUG DCT GIKEB DCT KOXUD DCT GEKBA DCT VAMTU DCT KOLON DCT GANGU DCT PADKO DCT VATIR N852 PIVUS DCT SULID DCT DIMIB DCT POS
Aircraft A320/M-SDE3FGHIRWY/LB1

Departure

Time 2026-05-05 16:34
Airport Salzburg Airport (LOWS)

Arrival

Time N/A
Airport Ibiza Airport (LEIB)
Time Latitude Longitude Altitude Speed Heading
2026-05-05 16:04 47.79145 12.99924 1422 ft 0 kts 281°
2026-05-05 16:24 47.79144 12.99926 1422 ft 2 kts 281°
2026-05-05 16:25 47.79139 12.99962 1422 ft 4 kts 281°
2026-05-05 16:25 47.79129 13.00041 1422 ft 4 kts 281°
2026-05-05 16:25 47.79127 13.00055 1422 ft 0 kts 281°
2026-05-05 16:28 47.79127 13.00051 1422 ft 2 kts 273°
2026-05-05 16:28 47.79110 13.00036 1401 ft 4 kts 180°
2026-05-05 16:28 47.79080 13.00069 1422 ft 9 kts 144°
2026-05-05 16:29 47.79011 13.00122 1422 ft 10 kts 155°
2026-05-05 16:29 47.78968 13.00155 1422 ft 4 kts 144°
2026-05-05 16:29 47.78960 13.00169 1422 ft 1 kts 126°
2026-05-05 16:29 47.78955 13.00251 1422 ft 14 kts 91°
2026-05-05 16:30 47.78944 13.00360 1421 ft 14 kts 123°
2026-05-05 16:30 47.78834 13.00443 1420 ft 19 kts 157°
2026-05-05 16:30 47.78712 13.00520 1421 ft 23 kts 156°
2026-05-05 16:30 47.78542 13.00628 1420 ft 28 kts 157°
2026-05-05 16:31 47.78372 13.00736 1420 ft 26 kts 156°
2026-05-05 16:31 47.78230 13.00836 1420 ft 14 kts 142°
2026-05-05 16:31 47.78195 13.00889 1421 ft 2 kts 127°
2026-05-05 16:31 47.78193 13.00894 1421 ft 0 kts 124°
2026-05-05 16:32 47.78191 13.00898 1422 ft 3 kts 123°
2026-05-05 16:32 47.78182 13.00953 1419 ft 9 kts 90°
2026-05-05 16:33 47.78202 13.01045 1421 ft 8 kts 64°
2026-05-05 16:33 47.78236 13.01080 1422 ft 4 kts 12°
2026-05-05 16:33 47.78254 13.01074 1419 ft 1 kts 338°
2026-05-05 16:33 47.78291 13.01052 1419 ft 23 kts 338°
2026-05-05 16:34 47.78678 13.00806 1420 ft 94 kts 337°
2026-05-05 16:34 47.79460 13.00311 1424 ft 147 kts 336°
2026-05-05 16:34 47.80479 12.99660 1872 ft 159 kts 336°
2026-05-05 16:34 47.81497 12.99040 2565 ft 159 kts 342°
2026-05-05 16:35 47.82614 12.99017 3171 ft 164 kts 14°
2026-05-05 16:35 47.83624 12.99832 3796 ft 166 kts 34°
2026-05-05 16:35 47.84565 13.00847 4417 ft 168 kts 34°
2026-05-05 16:35 47.85537 13.01889 4862 ft 182 kts 34°
2026-05-05 16:36 47.86634 13.03055 5238 ft 205 kts 34°
2026-05-05 16:36 47.87859 13.04356 5635 ft 228 kts 35°
2026-05-05 16:36 47.89218 13.05797 5932 ft 252 kts 35°
2026-05-05 16:36 47.90640 13.07533 6312 ft 277 kts 47°
2026-05-05 16:37 47.91769 13.09928 6898 ft 287 kts 65°
2026-05-05 16:37 47.92471 13.12726 7651 ft 290 kts 77°
2026-05-05 16:37 47.92744 13.15703 8448 ft 291 kts 94°
2026-05-05 16:37 47.92358 13.18607 9226 ft 290 kts 116°
2026-05-05 16:38 47.91254 13.21130 9978 ft 288 kts 138°
2026-05-05 16:38 47.89648 13.22846 10454 ft 296 kts 158°
2026-05-05 16:38 47.87602 13.23684 10665 ft 317 kts 172°
2026-05-05 16:38 47.85359 13.24290 10900 ft 338 kts 172°
2026-05-05 16:39 47.83006 13.24931 11467 ft 347 kts 171°
2026-05-05 16:39 47.80615 13.25593 12176 ft 352 kts 171°
2026-05-05 16:39 47.78198 13.26273 12881 ft 356 kts 171°
2026-05-05 16:39 47.75752 13.26967 13573 ft 360 kts 171°
2026-05-05 16:40 47.73281 13.27672 14200 ft 363 kts 171°
2026-05-05 16:40 47.70792 13.28386 14829 ft 366 kts 171°
2026-05-05 16:40 47.68280 13.29105 15446 ft 369 kts 171°
2026-05-05 16:40 47.65752 13.29828 16078 ft 371 kts 172°
2026-05-05 16:41 47.63198 13.30550 16621 ft 376 kts 172°
2026-05-05 16:41 47.60616 13.31273 17247 ft 379 kts 172°
2026-05-05 16:41 47.58020 13.31991 17881 ft 381 kts 174°
2026-05-05 16:41 47.55384 13.32251 18383 ft 380 kts 185°
2026-05-05 16:42 47.52772 13.31730 18817 ft 380 kts 195°
2026-05-05 16:42 47.50287 13.30434 19303 ft 380 kts 206°
2026-05-05 16:42 47.47988 13.28493 19797 ft 381 kts 212°
2026-05-05 16:42 47.45726 13.26436 20292 ft 383 kts 212°
2026-05-05 16:43 47.43446 13.24375 20832 ft 384 kts 211°
2026-05-05 16:43 47.41159 13.22318 21335 ft 386 kts 211°
2026-05-05 16:43 47.38864 13.20259 21805 ft 388 kts 211°
2026-05-05 16:43 47.36550 13.18183 22281 ft 390 kts 211°
2026-05-05 16:44 47.34221 13.16091 22742 ft 392 kts 211°
2026-05-05 16:44 47.31884 13.13992 23191 ft 395 kts 210°
2026-05-05 16:44 47.29528 13.11879 23623 ft 398 kts 210°
2026-05-05 16:44 47.27150 13.09748 24010 ft 401 kts 210°
2026-05-05 16:45 47.24768 13.07615 24401 ft 402 kts 211°
2026-05-05 16:45 47.22378 13.05480 24743 ft 403 kts 211°
2026-05-05 16:45 47.19978 13.03337 25121 ft 404 kts 211°
2026-05-05 16:45 47.17567 13.01190 25454 ft 406 kts 211°
2026-05-05 16:46 47.15145 12.99035 25781 ft 408 kts 211°
2026-05-05 16:46 47.12737 12.96891 26151 ft 410 kts 211°
2026-05-05 16:46 47.10299 12.94721 26435 ft 411 kts 211°
2026-05-05 16:46 47.07814 12.92511 26754 ft 413 kts 211°
2026-05-05 16:47 47.05349 12.90322 27057 ft 416 kts 212°
2026-05-05 16:47 47.02857 12.88113 27335 ft 420 kts 212°
2026-05-05 16:47 47.01202 12.86648 27546 ft 421 kts 212°
2026-05-05 16:47 46.97869 12.83698 27900 ft 423 kts 212°
2026-05-05 16:48 46.95315 12.81438 28197 ft 425 kts 212°
2026-05-05 16:48 46.93634 12.79953 28382 ft 426 kts 212°
2026-05-05 16:48 46.91089 12.77707 28693 ft 428 kts 212°
2026-05-05 16:48 46.87701 12.74725 29070 ft 430 kts 212°
2026-05-05 16:49 46.85969 12.73204 29278 ft 431 kts 212°
2026-05-05 16:49 46.82557 12.70214 29761 ft 431 kts 213°
2026-05-05 16:49 46.79989 12.67966 30161 ft 430 kts 212°
2026-05-05 16:49 46.78255 12.66447 30408 ft 429 kts 212°
2026-05-05 16:50 46.75702 12.64211 30745 ft 428 kts 212°
2026-05-05 16:50 46.73157 12.61963 31082 ft 427 kts 215°
2026-05-05 16:50 46.70811 12.59347 31424 ft 424 kts 223°
2026-05-05 16:50 46.68781 12.56253 31770 ft 422 kts 231°
2026-05-05 16:51 46.66995 12.52879 32105 ft 421 kts 233°
2026-05-05 16:51 46.65213 12.49497 32464 ft 419 kts 232°
2026-05-05 16:51 46.63438 12.46143 32798 ft 418 kts 232°
2026-05-05 16:51 46.61664 12.42804 33144 ft 417 kts 232°
2026-05-05 16:52 46.59890 12.39471 33488 ft 416 kts 232°
2026-05-05 16:52 46.58121 12.36153 33873 ft 415 kts 232°
2026-05-05 16:52 46.56382 12.32886 34168 ft 413 kts 232°
2026-05-05 16:52 46.54624 12.29581 34436 ft 413 kts 232°
2026-05-05 16:53 46.52873 12.26290 34733 ft 412 kts 232°
2026-05-05 16:53 46.51120 12.23004 34935 ft 412 kts 232°
2026-05-05 16:53 46.47611 12.16434 34984 ft 411 kts 232°
2026-05-05 16:54 46.44115 12.09889 34979 ft 410 kts 232°
2026-05-05 16:54 46.40619 12.03369 34990 ft 410 kts 232°
2026-05-05 16:55 46.37112 11.96857 34990 ft 409 kts 232°
2026-05-05 16:55 46.33606 11.90362 34986 ft 410 kts 232°
2026-05-05 16:56 46.30091 11.83876 34982 ft 410 kts 232°
2026-05-05 16:56 46.26571 11.77392 34984 ft 410 kts 232°
2026-05-05 16:57 46.23057 11.70913 34979 ft 410 kts 232°
2026-05-05 16:57 46.19530 11.64443 34991 ft 410 kts 232°
2026-05-05 16:58 46.16078 11.57903 34990 ft 410 kts 234°
2026-05-05 16:58 46.12844 11.51135 34998 ft 410 kts 236°
2026-05-05 16:59 46.09638 11.44336 34999 ft 410 kts 236°
2026-05-05 16:59 46.06387 11.37590 35013 ft 410 kts 235°
2026-05-05 17:00 46.03104 11.30882 35011 ft 410 kts 235°
2026-05-05 17:00 45.99813 11.24184 35015 ft 410 kts 235°
2026-05-05 17:01 45.96535 11.17489 35017 ft 409 kts 235°
2026-05-05 17:01 45.93252 11.10795 35029 ft 410 kts 235°
2026-05-05 17:02 45.89990 11.04163 35029 ft 409 kts 235°
2026-05-05 17:02 45.86685 10.97462 35024 ft 408 kts 234°
2026-05-05 17:03 45.83413 10.90857 35010 ft 409 kts 234°
2026-05-05 17:03 45.80101 10.84184 35008 ft 408 kts 234°
2026-05-05 17:04 45.76802 10.77570 35010 ft 407 kts 234°
2026-05-05 17:04 45.73534 10.71013 35004 ft 407 kts 234°
2026-05-05 17:05 45.70246 10.64420 35001 ft 407 kts 234°
2026-05-05 17:05 45.66957 10.57839 35011 ft 406 kts 234°
2026-05-05 17:06 45.63670 10.51297 35010 ft 404 kts 234°
2026-05-05 17:06 45.60398 10.44781 35002 ft 403 kts 234°
2026-05-05 17:07 45.57131 10.38295 35000 ft 402 kts 234°
2026-05-05 17:07 45.53860 10.31830 34997 ft 402 kts 234°
2026-05-05 17:08 45.50589 10.25374 34989 ft 401 kts 234°
2026-05-05 17:08 45.47319 10.18939 34991 ft 400 kts 234°
2026-05-05 17:09 45.44050 10.12527 35011 ft 400 kts 234°
2026-05-05 17:09 45.40794 10.06125 35005 ft 399 kts 234°
2026-05-05 17:10 45.37539 9.99750 34996 ft 398 kts 234°
2026-05-05 17:10 45.34288 9.93391 34996 ft 397 kts 234°
2026-05-05 17:11 45.31037 9.87051 34994 ft 396 kts 234°
2026-05-05 17:11 45.27791 9.80745 35000 ft 395 kts 234°
2026-05-05 17:12 45.24553 9.74473 35001 ft 394 kts 234°
2026-05-05 17:12 45.21318 9.68204 34993 ft 393 kts 234°
2026-05-05 17:13 45.18084 9.61964 35016 ft 392 kts 234°
2026-05-05 17:13 45.14957 9.55667 35003 ft 390 kts 236°
2026-05-05 17:14 45.11952 9.49304 35002 ft 387 kts 237°
2026-05-05 17:14 45.08953 9.42993 34996 ft 386 kts 236°
2026-05-05 17:15 45.05936 9.36725 34990 ft 385 kts 236°
2026-05-05 17:15 45.02912 9.30489 34990 ft 384 kts 236°
2026-05-05 17:16 44.99890 9.24269 34974 ft 383 kts 236°
2026-05-05 17:16 44.96877 9.18068 35008 ft 382 kts 236°
2026-05-05 17:17 44.93877 9.11904 35005 ft 380 kts 236°
2026-05-05 17:17 44.90885 9.05768 35002 ft 379 kts 236°
2026-05-05 17:18 44.87917 8.99690 34981 ft 378 kts 236°
2026-05-05 17:18 44.84927 8.93585 34978 ft 378 kts 236°
2026-05-05 17:19 44.81940 8.87502 34978 ft 377 kts 236°
2026-05-05 17:19 44.78954 8.81437 34973 ft 376 kts 236°
2026-05-05 17:20 44.75978 8.75401 34964 ft 375 kts 236°
2026-05-05 17:20 44.73003 8.69366 34977 ft 375 kts 236°
2026-05-05 17:21 44.70027 8.63361 34960 ft 374 kts 235°
2026-05-05 17:22 44.65567 8.54384 34964 ft 373 kts 235°
2026-05-05 17:22 44.62591 8.48414 34962 ft 373 kts 235°
2026-05-05 17:23 44.59623 8.42456 34955 ft 372 kts 235°
2026-05-05 17:23 44.56650 8.36508 34951 ft 372 kts 235°
2026-05-05 17:24 44.53681 8.30570 34964 ft 372 kts 234°
2026-05-05 17:24 44.50715 8.24648 34959 ft 371 kts 234°
2026-05-05 17:25 44.47739 8.18746 34956 ft 371 kts 234°
2026-05-05 17:25 44.44762 8.12842 34947 ft 371 kts 234°
2026-05-05 17:26 44.41790 8.06949 34948 ft 371 kts 234°
2026-05-05 17:26 44.38809 8.01057 34948 ft 371 kts 234°
2026-05-05 17:27 44.35824 7.95174 34970 ft 371 kts 234°
2026-05-05 17:27 44.32848 7.89329 34945 ft 372 kts 234°
2026-05-05 17:28 44.29848 7.83445 34946 ft 372 kts 234°
2026-05-05 17:28 44.26758 7.77674 34943 ft 372 kts 227°
2026-05-05 17:29 44.22929 7.72814 34946 ft 372 kts 223°
2026-05-05 17:29 44.19037 7.68035 34947 ft 374 kts 223°
2026-05-05 17:30 44.15137 7.63248 34928 ft 373 kts 224°
2026-05-05 17:30 44.11678 7.57897 34974 ft 372 kts 229°
2026-05-05 17:31 44.08293 7.52473 34970 ft 371 kts 229°
2026-05-05 17:31 44.04897 7.47065 34963 ft 371 kts 229°
2026-05-05 17:32 44.01504 7.41659 34964 ft 371 kts 229°
2026-05-05 17:32 43.98116 7.36264 34948 ft 371 kts 229°
2026-05-05 17:33 43.94728 7.30886 34955 ft 370 kts 229°
2026-05-05 17:33 43.91346 7.25515 34959 ft 369 kts 229°
2026-05-05 17:34 43.87962 7.20154 34951 ft 369 kts 229°
2026-05-05 17:34 43.84580 7.14809 34949 ft 369 kts 229°
2026-05-05 17:35 43.81186 7.09471 34949 ft 368 kts 229°
2026-05-05 17:35 43.78379 7.05052 34936 ft 368 kts 229°
2026-05-05 17:36 43.74994 6.99736 34938 ft 368 kts 229°
2026-05-05 17:36 43.71900 6.94108 34931 ft 370 kts 240°
2026-05-05 17:37 43.69905 6.87534 34935 ft 372 kts 245°
2026-05-05 17:37 43.67960 6.80908 34958 ft 372 kts 244°
2026-05-05 17:38 43.66002 6.74295 34951 ft 372 kts 244°
2026-05-05 17:38 43.64045 6.67688 34948 ft 372 kts 244°
2026-05-05 17:39 43.62083 6.61079 34932 ft 372 kts 244°
2026-05-05 17:39 43.60115 6.54476 34938 ft 372 kts 244°
2026-05-05 17:40 43.58150 6.47877 34932 ft 372 kts 244°
2026-05-05 17:40 43.56181 6.41279 34948 ft 372 kts 244°
2026-05-05 17:41 43.54208 6.34691 34939 ft 372 kts 244°
2026-05-05 17:41 43.52222 6.28109 34935 ft 372 kts 244°
2026-05-05 17:42 43.50236 6.21534 34931 ft 372 kts 244°
2026-05-05 17:42 43.48254 6.14958 34927 ft 371 kts 244°
2026-05-05 17:43 43.46264 6.08397 34933 ft 371 kts 244°
2026-05-05 17:43 43.44274 6.01847 34925 ft 371 kts 244°
2026-05-05 17:44 43.42283 5.95300 34916 ft 371 kts 244°
2026-05-05 17:44 43.40289 5.88757 34920 ft 371 kts 244°
2026-05-05 17:45 43.38287 5.82216 34919 ft 371 kts 244°
2026-05-05 17:45 43.36284 5.75671 34915 ft 371 kts 244°
2026-05-05 17:46 43.34273 5.69132 34949 ft 371 kts 243°
2026-05-05 17:46 43.32271 5.62634 34925 ft 373 kts 244°
2026-05-05 17:47 43.30247 5.56094 34924 ft 374 kts 243°
2026-05-05 17:47 43.28209 5.49532 34900 ft 374 kts 243°
2026-05-05 17:48 43.26173 5.42975 34909 ft 374 kts 244°
2026-05-05 17:48 43.24121 5.36430 34919 ft 372 kts 240°
2026-05-05 17:49 43.21059 5.30823 34943 ft 369 kts 222°
2026-05-05 17:49 43.17151 5.26258 34927 ft 369 kts 221°
2026-05-05 17:50 43.13243 5.21679 34916 ft 370 kts 221°
2026-05-05 17:50 43.09325 5.17080 34900 ft 371 kts 221°
2026-05-05 17:51 43.05410 5.12501 34912 ft 370 kts 221°
2026-05-05 17:51 43.01492 5.07942 34912 ft 370 kts 221°
2026-05-05 17:52 42.97579 5.03388 34914 ft 369 kts 221°
2026-05-05 17:52 42.93664 4.98850 34916 ft 369 kts 221°
2026-05-05 17:53 42.89759 4.94314 34920 ft 369 kts 221°
2026-05-05 17:53 42.85849 4.89782 34917 ft 369 kts 221°
2026-05-05 17:54 42.81933 4.85260 34911 ft 369 kts 221°
2026-05-05 17:54 42.78013 4.80735 34907 ft 369 kts 221°
2026-05-05 17:55 42.74089 4.76215 34908 ft 369 kts 221°
2026-05-05 17:55 42.70168 4.71701 34907 ft 369 kts 221°
2026-05-05 17:56 42.66266 4.67222 34895 ft 369 kts 221°
2026-05-05 17:56 42.62340 4.62720 34897 ft 370 kts 221°
2026-05-05 17:57 42.58401 4.58212 34902 ft 370 kts 221°
2026-05-05 17:57 42.54461 4.53712 34927 ft 371 kts 221°
2026-05-05 17:58 42.50513 4.49215 34889 ft 371 kts 221°
2026-05-05 17:58 42.46558 4.44722 34897 ft 371 kts 221°
2026-05-05 17:59 42.42608 4.40229 34898 ft 370 kts 221°
2026-05-05 17:59 42.38664 4.35741 34899 ft 370 kts 221°
2026-05-05 18:00 42.34714 4.31270 34897 ft 370 kts 221°
2026-05-05 18:00 42.30760 4.26808 34870 ft 370 kts 221°
2026-05-05 18:01 42.26815 4.22357 34890 ft 369 kts 221°
2026-05-05 18:01 42.22869 4.17918 34913 ft 370 kts 221°
2026-05-05 18:02 42.18914 4.13471 34899 ft 371 kts 221°
2026-05-05 18:02 42.14607 4.09618 34891 ft 374 kts 212°
2026-05-05 18:03 42.10053 4.06280 34866 ft 375 kts 212°
2026-05-05 18:03 42.05467 4.02927 34873 ft 375 kts 212°
2026-05-05 18:04 42.00878 3.99567 34877 ft 375 kts 212°
2026-05-05 18:04 41.96290 3.96210 34885 ft 376 kts 212°
2026-05-05 18:05 41.91697 3.92861 34848 ft 376 kts 212°
2026-05-05 18:05 41.87035 3.89672 34872 ft 376 kts 211°
2026-05-05 18:06 41.82340 3.86580 34879 ft 376 kts 210°
2026-05-05 18:06 41.77646 3.83461 34882 ft 376 kts 211°
2026-05-05 18:07 41.72966 3.80327 34916 ft 376 kts 211°
2026-05-05 18:07 41.68278 3.77174 34885 ft 377 kts 211°
2026-05-05 18:08 41.63576 3.74033 34880 ft 378 kts 211°
2026-05-05 18:08 41.58867 3.70901 34879 ft 379 kts 211°
2026-05-05 18:09 41.54152 3.67760 34885 ft 379 kts 211°
2026-05-05 18:09 41.49432 3.64619 34846 ft 379 kts 211°
2026-05-05 18:10 41.44743 3.61505 34868 ft 379 kts 211°
2026-05-05 18:10 41.40030 3.58385 34877 ft 378 kts 211°
2026-05-05 18:11 41.35314 3.55269 34881 ft 378 kts 211°
2026-05-05 18:11 41.30617 3.52161 34882 ft 377 kts 211°
2026-05-05 18:12 41.25911 3.49051 34868 ft 377 kts 211°
2026-05-05 18:12 41.21212 3.45961 34878 ft 377 kts 211°
2026-05-05 18:13 41.16263 3.43550 34879 ft 387 kts 198°
2026-05-05 18:13 41.10984 3.42171 34877 ft 387 kts 198°
2026-05-05 18:14 41.05695 3.40780 34858 ft 387 kts 198°
2026-05-05 18:14 41.00408 3.39382 34867 ft 388 kts 198°
2026-05-05 18:15 40.95116 3.37996 34874 ft 388 kts 198°
2026-05-05 18:15 40.89827 3.36602 34879 ft 388 kts 198°
2026-05-05 18:16 40.84536 3.35212 34858 ft 387 kts 198°
2026-05-05 18:16 40.79245 3.33827 34870 ft 388 kts 198°
2026-05-05 18:17 40.73954 3.32446 34876 ft 388 kts 198°
2026-05-05 18:17 40.68659 3.31067 34886 ft 388 kts 198°
2026-05-05 18:18 40.63361 3.29676 34890 ft 388 kts 198°
2026-05-05 18:18 40.58066 3.28298 34881 ft 388 kts 198°
2026-05-05 18:19 40.52769 3.26919 34887 ft 388 kts 198°
2026-05-05 18:19 40.47464 3.25542 34888 ft 388 kts 198°
2026-05-05 18:20 40.42202 3.24174 34843 ft 388 kts 198°
2026-05-05 18:20 40.36858 3.22787 34854 ft 389 kts 198°
2026-05-05 18:21 40.31578 3.21424 34868 ft 390 kts 198°
2026-05-05 18:21 40.26252 3.20061 34877 ft 390 kts 198°
2026-05-05 18:22 40.20918 3.18680 34831 ft 391 kts 198°
2026-05-05 18:22 40.15566 3.17305 34873 ft 393 kts 198°
2026-05-05 18:23 40.10196 3.15938 34880 ft 393 kts 197°
2026-05-05 18:23 40.07995 3.15377 34881 ft 393 kts 198°
2026-05-05 18:24 40.04082 3.14341 34882 ft 393 kts 198°
2026-05-05 18:24 39.98975 3.13032 34884 ft 393 kts 197°
2026-05-05 18:25 39.94508 3.11884 34862 ft 392 kts 200°
2026-05-05 18:25 39.89562 3.09136 34870 ft 382 kts 213°
2026-05-05 18:26 39.84955 3.05766 34877 ft 383 kts 213°
2026-05-05 18:26 39.80304 3.02386 34912 ft 383 kts 213°
2026-05-05 18:27 39.75649 2.99003 34863 ft 383 kts 213°
2026-05-05 18:27 39.70984 2.95627 34868 ft 384 kts 213°
2026-05-05 18:28 39.63963 2.90550 34878 ft 386 kts 213°
2026-05-05 18:28 39.59273 2.87168 34889 ft 386 kts 213°
2026-05-05 18:29 39.54579 2.83779 34892 ft 386 kts 213°
2026-05-05 18:29 39.49883 2.80392 34887 ft 387 kts 213°
2026-05-05 18:30 39.45188 2.76977 34861 ft 387 kts 217°
2026-05-05 18:30 39.43082 2.74849 34618 ft 383 kts 226°
2026-05-05 18:30 39.41261 2.72337 33957 ft 384 kts 232°
2026-05-05 18:31 39.39603 2.69602 32959 ft 389 kts 233°
2026-05-05 18:31 39.37908 2.66855 31986 ft 393 kts 232°
2026-05-05 18:31 39.36177 2.64097 30984 ft 397 kts 232°
2026-05-05 18:31 39.34421 2.61327 30012 ft 400 kts 232°
2026-05-05 18:32 39.32648 2.58545 29074 ft 400 kts 232°
2026-05-05 18:32 39.30898 2.55793 28456 ft 392 kts 232°
2026-05-05 18:32 39.29181 2.53084 27811 ft 387 kts 232°
2026-05-05 18:32 39.27490 2.50416 27169 ft 382 kts 232°
2026-05-05 18:33 39.25813 2.47772 26530 ft 379 kts 232°
2026-05-05 18:33 39.24155 2.45157 25907 ft 375 kts 232°
2026-05-05 18:33 39.22509 2.42563 25277 ft 372 kts 232°
2026-05-05 18:33 39.20880 2.39996 24679 ft 369 kts 233°
2026-05-05 18:34 39.19264 2.37446 24084 ft 366 kts 233°
2026-05-05 18:34 39.17659 2.34916 23497 ft 363 kts 233°
2026-05-05 18:34 39.16064 2.32408 22860 ft 360 kts 233°
2026-05-05 18:34 39.14490 2.29935 22320 ft 354 kts 233°
2026-05-05 18:35 39.12936 2.27501 21804 ft 350 kts 233°
2026-05-05 18:35 39.11917 2.25908 21475 ft 347 kts 233°